Dewpoint
51 46 44 33 27 29 24 22 26 31 36 41 48 44 44 49 53 56 64 59 58 65 72 74 76 75 74 73 73 73 74 75 75 75 74 73 73 75 75 74 73 72 71 71 70 69 67 66 65
41 40 23 23 26 24 28 28 38 48 41 41 44 47 47 51 58 61 61 55 55 66 69 73 76 75 74 73 73 73 74 75 75 74 73 72 72 74 75 74 73 72 71 71 70 69 68 67 66
42 32 22 27 26 23 26 28 26 49 39 40 47 47 52 52 57 60 58 54 57 61 67 74 76 75 74 74 74 74 75 75 74 73 72 72 72 74 75 74 73 72 71 71 71 70 69 69 66
26 20 17 19 22 23 28 22 18 25 34 37 42 51 55 56 58 62 57 53 56 57 69 75 75 76 75 74 74 74 74 74 74 73 72 71 72 74 75 74 73 73 72 71 71 71 70 70 67
21 19 13 8 12 19 32 19 18 16 32 38 40 48 57 60 62 61 57 54 53 56 70 73 75 75 75 74 74 74 74 74 73 73 72 72 73 74 74 74 74 73 73 72 72 71 71 71 69
13 14 11 9 9 12 18 21 20 18 17 38 40 47 55 60 62 59 57 54 52 66 68 72 75 75 75 75 74 74 74 73 73 72 72 72 73 73 74 74 74 73 73 73 73 72 71 71 71
15 13 10 6 5 3 10 18 19 21 19 20 41 49 56 59 60 57 56 54 53 63 64 69 71 74 75 75 74 74 73 73 73 72 72 72 73 73 73 74 74 74 73 73 73 73 73 72 72
10 13 11 10 6 2 9 12 11 20 26 27 42 53 52 59 61 60 58 55 54 58 60 64 67 69 72 72 74 73 73 73 72 72 71 72 72 73 73 73 73 73 73 73 73 73 72 71 71
11 12 12 9 5 2 10 10 11 16 28 28 41 50 47 56 61 60 58 56 55 56 57 57 59 61 60 64 71 73 72 72 72 72 71 70 66 70 71 69 71 72 72 73 73 73 72 71 71
9 13 9 6 3 7 8 12 12 15 15 26 36 55 56 59 58 57 57 56 55 54 56 55 55 57 56 58 68 67 68 68 68 66 69 66 63 63 65 68 71 71 71 71 72 73 73 72 69
11 8 8 5 9 8 10 10 11 12 13 21 30 49 52 56 58 56 55 55 56 54 55 54 57 58 55 56 66 64 64 65 65 64 68 65 61 64 64 69 68 69 70 68 71 70 70 69 68
9 9 8 6 9 8 9 11 6 11 13 30 44 48 51 52 55 54 52 55 55 54 53 55 59 60 59 61 63 61 61 63 64 64 68 65 65 67 63 66 65 63 64 62 66 66 67 67 66
8 8 8 7 6 8 9 7 8 12 13 23 44 58 51 49 52 52 50 54 54 53 54 54 60 63 62 67 64 60 60 62 63 65 68 67 66 67 65 64 64 62 63 62 61 61 62 63 61
8 10 9 4 6 6 5 6 8 11 12 16 35 33 44 46 49 52 54 51 54 54 56 56 61 66 63 67 67 64 63 62 64 65 67 68 69 68 66 65 64 63 62 61 61 59 58 59 60
13 10 12 11 9 8 6 6 5 9 11 12 29 27 26 43 46 51 51 51 55 58 58 58 62 68 66 67 68 67 63 62 64 63 69 69 69 69 66 66 65 64 63 61 61 62 64 62 63
18 16 13 12 11 10 8 5 7 10 11 11 18 21 21 42 45 50 52 54 59 60 62 61 58 68 69 69 68 67 65 66 64 65 66 70 69 68 70 67 66 65 65 63 62 64 64 65 65
16 14 12 11 13 10 10 7 6 10 10 12 15 16 16 19 44 55 57 63 61 63 64 63 63 64 69 69 69 68 67 66 66 65 65 68 68 68 69 68 67 67 64 63 64 64 65 65 60
13 9 11 11 11 10 10 9 8 10 6 12 13 16 16 17 46 50 53 55 57 65 67 66 67 66 69 69 69 68 65 66 66 65 66 70 69 69 70 69 69 68 66 65 63 62 65 66 66
15 13 12 15 13 10 12 12 10 12 10 13 17 19 21 30 42 49 53 53 53 56 66 70 70 70 70 69 68 68 66 65 65 65 66 71 69 69 70 69 69 69 67 66 66 65 65 65 65
16 15 16 17 15 11 12 12 15 14 16 18 18 21 23 38 44 48 52 55 55 55 57 64 68 70 72 70 70 69 68 66 66 66 65 67 69 70 70 70 69 68 68 68 68 65 66 66 65
16 16 18 17 16 14 14 13 15 16 23 25 28 30 33 36 45 48 50 54 57 58 58 58 59 61 67 71 71 71 70 70 67 65 66 68 68 70 71 71 70 70 69 67 68 67 67 64 63
18 17 18 17 16 14 16 14 18 18 25 29 31 35 36 42 46 47 49 52 55 59 62 63 62 60 60 64 69 70 69 67 66 65 64 67 68 69 70 70 71 70 70 67 67 68 67 67 65
19 19 17 18 18 18 17 16 17 17 26 29 32 35 38 41 44 46 46 47 48 54 58 63 65 67 65 61 62 64 69 67 68 65 63 67 70 70 69 71 71 71 71 68 66 66 68 68 65
19 18 19 20 18 17 18 17 17 17 22 31 32 34 37 39 41 44 46 47 48 48 53 57 60 62 64 67 66 64 64 68 68 69 70 66 71 71 70 70 71 72 71 68 70 66 68 67 67
20 20 18 16 17 16 17 16 18 31 27 31 33 35 35 37 40 41 42 45 48 49 50 53 56 57 59 61 63 66 67 67 67 67 66 68 68 69 70 70 71 71 71 70 68 67 68 67 67
26 27 27 28 24 18 18 17 28 34 33 33 36 35 36 36 38 40 41 43 45 49 50 51 54 55 56 58 59 61 63 65 66 67 68 68 67 68 64 66 66 66 70 70 68 69 68 69 69
28 28 30 31 33 30 25 25 32 33 35 35 35 35 35 36 37 38 40 39 43 45 49 50 51 52 54 55 56 58 60 61 62 64 67 67 68 69 66 62 62 60 64 68 68 67 69 68 68
30 32 29 29 31 30 29 29 37 43 37 35 37 34 34 35 35 35 38 39 38 38 43 45 45 46 50 52 53 54 56 57 59 61 61 63 64 66 67 67 63 58 58 65 67 67 69 68 66
26 28 34 34 30 33 30 33 43 44 46 44 44 36 36 34 33 35 37 39 38 38 38 42 42 42 44 46 48 51 54 56 59 59 59 60 61 63 64 65 66 62 58 65 66 66 67 67 66
25 30 35 34 30 36 34 35 43 44 47 47 46 47 38 33 32 33 34 35 37 37 38 39 41 39 41 44 46 48 50 53 54 56 58 59 59 60 60 62 63 65 66 66 65 65 65 66 64
Wind_Speed
12 14 13 15 7 11 20 21 4 12 20 13 18 14 13 18 13 6 15 17 28 25 21 19 18 18 22 19 17 19 18 15 15 15 14 14 13 14 15 16 16 15 15 15 15 15 15 14 12
13 19 12 10 12 19 18 29 19 31 10 15 13 8 13 14 17 15 16 23 27 24 20 18 19 19 20 20 18 17 18 16 16 15 14 14 13 14 13 15 15 14 13 13 14 13 13 12 9
12 16 10 8 18 19 8 29 14 45 9 4 10 14 6 5 9 13 20 27 27 23 21 20 19 19 20 19 18 17 17 17 15 15 14 13 13 12 12 13 14 13 12 12 12 12 11 10 6
9 9 10 12 19 17 17 7 10 1 9 5 8 12 8 4 4 15 21 27 25 23 23 22 21 19 19 21 19 17 16 15 15 15 13 13 13 12 12 11 12 12 11 11 10 9 9 8 5
13 10 17 22 22 20 20 3 4 8 10 16 6 9 9 6 9 18 24 23 24 25 23 21 22 21 19 19 19 18 16 15 14 14 14 13 12 11 11 9 8 11 11 10 9 8 7 7 4
11 10 16 19 21 16 5 4 6 8 10 14 9 13 10 14 17 18 20 20 23 27 23 21 20 21 19 18 17 18 15 15 14 13 13 12 12 11 10 9 8 8 10 10 10 8 7 6 5
16 17 21 21 25 25 5 9 6 11 9 10 9 18 13 16 19 17 16 17 23 27 23 19 19 18 18 17 16 16 16 13 13 13 12 12 11 11 10 9 8 6 4 11 10 8 7 6 6
17 18 22 22 23 21 10 6 7 8 11 2 5 16 3 13 17 19 19 16 21 23 23 19 18 18 17 17 16 15 15 14 12 12 12 12 11 10 10 9 8 7 6 5 9 9 8 8 6
20 18 20 23 24 18 9 4 10 3 11 5 9 25 25 25 18 19 20 20 20 21 23 20 20 19 18 18 17 15 14 14 12 11 11 12 11 11 12 13 15 10 7 7 6 9 10 9 8
18 18 21 27 22 22 3 5 11 3 9 15 10 36 35 26 20 19 17 18 20 22 23 22 20 20 20 19 19 14 15 14 13 14 13 12 14 16 15 14 15 12 9 8 8 9 11 11 10
18 23 26 25 16 15 17 6 8 11 14 17 18 26 24 23 19 21 22 23 21 19 20 23 21 23 20 18 18 14 13 13 14 16 16 16 13 15 12 13 12 11 12 11 12 11 12 15 15
20 22 22 26 15 13 14 14 16 12 17 8 25 21 23 17 19 20 19 20 33 23 20 23 19 21 16 17 18 18 16 15 15 15 17 14 12 12 12 14 15 15 14 15 16 16 17 18 17
18 21 20 19 14 19 14 19 19 14 22 12 24 28 26 13 16 13 10 22 22 24 21 21 20 16 12 8 17 17 16 18 17 17 17 14 12 8 10 11 12 16 17 16 15 15 10 9 6
17 14 19 24 16 19 19 21 18 18 25 15 4 6 12 15 12 11 8 14 17 22 19 16 21 18 13 10 7 13 14 14 15 16 18 18 12 12 12 10 6 9 4 6 10 11 11 8 10
17 20 18 20 18 20 18 24 24 22 16 23 7 6 13 14 14 13 8 4 13 19 22 15 20 21 16 13 8 7 12 11 8 10 15 19 15 11 12 10 12 10 9 6 7 6 4 6 11
13 18 22 21 25 22 19 26 22 20 15 24 13 12 13 13 13 15 14 11 7 18 21 19 17 21 18 13 11 9 9 8 14 12 12 18 16 15 9 11 10 10 8 7 10 9 11 9 9
18 21 23 24 23 23 23 25 22 18 21 21 13 13 13 11 12 16 14 12 13 9 17 15 11 17 20 14 11 13 12 12 7 10 13 17 16 15 14 12 13 11 8 9 9 12 11 7 10
19 21 19 21 19 13 18 22 20 23 24 23 20 13 14 12 19 14 13 15 9 12 14 14 11 9 18 17 12 10 14 12 14 15 14 19 18 18 17 14 14 11 9 10 12 13 8 4 6
22 25 23 25 19 14 18 19 24 19 24 14 8 12 16 7 16 14 12 12 11 8 2 13 15 13 10 14 16 15 15 15 13 14 15 16 18 18 15 14 15 12 12 14 12 13 10 8 8
23 20 21 22 26 24 22 18 22 23 15 12 14 9 7 12 13 11 10 11 10 7 4 4 4 8 14 13 12 15 17 16 17 16 17 17 18 18 18 17 15 16 14 16 13 11 8 9 9
22 21 22 26 26 25 23 27 22 28 13 11 4 8 9 6 14 9 9 10 11 10 7 4 5 8 8 13 12 13 12 11 12 16 17 18 18 19 17 18 17 14 17 15 17 13 9 11 12
24 24 22 26 25 23 23 26 24 27 20 16 16 12 12 15 16 14 12 13 12 15 12 9 5 5 6 8 11 15 13 15 14 14 15 18 22 20 20 18 19 19 16 17 12 13 12 13 13
26 20 24 25 25 23 30 24 21 23 29 25 20 20 20 18 19 18 14 11 15 17 14 14 14 12 5 5 4 10 13 14 11 13 17 17 22 24 24 23 21 20 16 17 16 17 16 13 12
20 24 23 24 26 30 27 27 29 27 28 29 26 23 20 18 17 20 19 13 12 15 17 13 15 15 16 17 13 5 9 12 13 15 18 14 19 22 27 25 22 21 19 17 14 15 19 17 14
21 24 21 27 28 29 27 30 30 21 25 37 28 22 20 21 19 17 17 16 15 13 13 15 13 15 15 16 17 18 17 13 12 13 15 21 20 23 28 34 30 20 18 18 15 16 15 17 16
25 19 11 13 27 25 25 29 5 19 20 36 34 24 17 17 16 14 10 11 14 14 13 12 12 12 13 14 14 15 17 14 14 15 17 18 20 22 13 34 24 27 16 12 14 13 15 16 17
12 19 20 9 27 27 30 23 1 7 3 16 19 25 17 16 11 13 10 10 10 13 13 12 11 11 11 11 11 13 13 13 13 16 15 17 19 21 3 15 18 29 38 26 16 17 20 20 20
13 10 11 7 6 10 18 14 12 28 12 25 17 8 14 13 13 8 15 7 10 9 14 13 11 10 12 13 13 10 9 11 12 13 16 16 16 20 21 15 21 27 34 41 22 21 21 20 19
15 8 4 4 7 6 10 4 19 29 23 22 25 4 6 5 7 12 9 8 8 9 11 11 10 9 11 10 11 13 15 15 15 15 16 17 19 14 19 15 15 19 32 37 23 23 21 25 19
3 5 0 6 6 4 2 4 8 15 19 18 16 18 22 13 6 11 7 4 7 7 9 9 9 10 11 9 9 10 11 15 13 14 15 19 21 19 14 15 15 11 14 22 22 35 22 25 23
Wind_Direction
263 252 252 279 260 234 261 271 98 114 88 84 52 50 63 46 31 76 139 149 127 129 128 131 135 136 132 133 136 135 132 132 130 126 122 117 116 117 118 117 116 115 112 109 103 97 92 88 85
278 284 258 282 265 282 359 302 90 50 24 101 85 53 54 58 66 110 145 146 124 128 137 135 133 134 133 135 139 139 137 138 135 130 127 125 127 128 127 126 123 120 117 114 108 104 100 95 92
269 269 277 233 249 257 255 266 72 158 163 101 109 87 48 53 34 137 129 127 123 133 133 129 132 133 134 136 139 143 143 141 138 135 134 133 133 131 130 129 128 129 125 118 115 113 108 106 105
257 225 246 257 267 276 305 219 24 115 137 125 91 92 92 17 108 134 140 131 136 144 128 136 133 135 140 141 144 146 146 145 143 139 139 140 139 136 132 135 139 139 136 132 128 121 121 117 130
243 273 255 268 269 267 191 106 353 304 134 145 105 121 98 94 95 125 140 136 147 142 131 140 136 140 143 145 148 148 151 148 147 146 146 147 143 139 136 137 143 148 150 146 144 146 146 146 153
240 244 264 264 262 249 177 39 318 294 306 112 137 120 106 137 128 139 150 150 145 124 139 143 139 142 147 150 152 150 153 154 152 151 150 149 143 143 141 145 152 159 169 163 160 164 169 172 181
251 263 263 276 288 298 196 101 298 272 282 278 126 93 115 139 137 149 152 160 137 127 134 146 147 148 147 149 154 153 154 156 156 156 152 151 147 149 152 158 163 169 174 168 165 176 183 191 202
245 261 276 284 279 288 83 79 286 307 295 77 28 98 50 128 152 155 156 163 134 133 137 151 151 154 159 156 156 156 152 159 164 161 154 156 156 162 164 168 173 181 181 174 182 183 194 202 210
245 261 261 264 264 278 167 156 263 279 307 41 78 125 168 230 172 167 161 164 150 146 143 157 161 162 169 161 159 153 160 164 164 163 166 167 181 181 173 199 173 179 187 195 199 197 203 215 220
232 249 251 258 276 333 77 65 300 185 258 265 148 141 172 169 178 173 166 165 158 160 155 158 164 164 174 163 152 171 177 178 185 182 180 204 216 181 192 163 165 173 187 201 219 225 218 219 233
230 244 265 271 334 318 333 351 303 280 276 235 212 158 150 157 171 180 175 171 171 171 155 160 167 166 181 168 154 174 177 187 194 192 177 216 227 173 144 157 175 179 190 204 203 216 226 224 223
239 252 259 274 300 300 284 285 280 282 267 357 23 136 142 162 169 198 186 182 160 162 163 158 162 168 198 147 159 178 184 187 189 199 181 211 240 195 188 176 189 190 188 213 192 208 214 225 234
245 252 264 270 267 279 279 272 273 285 268 278 114 139 197 159 164 212 199 148 139 146 161 167 155 160 189 159 167 179 202 181 191 187 184 205 228 219 200 237 194 204 187 202 202 227 222 238 282
254 248 256 268 260 263 255 263 261 261 266 273 225 168 150 159 170 202 249 137 146 145 148 154 149 153 192 227 188 179 190 194 190 182 184 196 215 230 196 221 235 272 249 259 200 220 213 222 246
271 269 271 264 261 257 256 256 250 256 246 257 183 253 268 161 170 183 197 112 136 139 145 177 162 157 181 206 235 236 212 212 197 212 179 181 210 249 203 217 214 225 240 234 292 288 218 239 266
266 265 264 260 244 235 245 258 247 236 227 257 217 202 243 172 182 186 162 164 149 139 150 166 176 162 172 190 212 221 236 211 216 204 195 177 183 227 223 239 225 229 216 205 225 247 239 227 329
256 256 257 259 248 233 214 249 257 260 227 241 203 232 220 215 167 53 38 56 140 148 145 158 178 171 169 195 199 207 234 228 220 237 216 188 183 201 234 216 254 211 217 223 230 236 237 209 230
258 248 248 246 273 193 234 249 244 266 259 204 231 204 240 214 92 72 49 94 24 153 150 162 181 204 169 175 207 214 222 230 209 224 221 177 189 200 200 233 233 202 203 237 234 239 241 269 266
263 276 290 291 298 258 236 237 263 243 265 182 184 218 246 96 97 78 55 37 47 26 148 162 184 196 201 184 187 211 229 214 226 214 240 175 186 197 205 209 240 203 203 224 238 232 220 243 257
274 282 281 276 281 284 274 250 250 250 228 210 224 212 216 107 94 78 68 72 60 60 41 349 267 211 206 217 215 206 210 225 215 211 218 207 189 194 202 207 232 201 210 228 239 233 250 258 225
276 265 273 276 286 274 258 263 252 266 177 176 137 173 184 174 113 98 86 92 93 79 68 51 335 313 304 225 235 233 249 257 233 213 205 198 193 196 205 200 216 228 203 221 212 215 213 243 262
271 281 252 264 267 269 271 251 246 245 186 190 178 158 165 130 129 127 118 111 96 93 73 78 60 357 312 283 267 253 237 234 251 248 219 195 191 194 203 212 202 225 211 218 209 191 203 213 243
274 269 282 278 278 250 259 270 255 250 193 189 186 182 174 165 149 141 130 106 109 100 79 70 46 40 53 340 295 311 271 270 277 261 241 216 191 196 200 203 210 210 220 202 204 192 195 206 216
263 261 263 277 264 265 250 251 263 254 215 180 181 177 158 153 146 137 133 118 91 90 97 69 59 39 35 36 27 343 326 319 305 306 315 276 196 202 205 201 200 211 207 214 207 197 187 199 207
264 275 259 255 246 247 250 252 252 341 303 169 172 153 171 156 148 149 141 122 107 88 74 83 61 49 41 33 32 22 16 352 317 298 293 291 289 220 214 198 189 202 205 205 206 191 193 194 208
287 296 320 285 284 275 261 260 284 16 14 153 155 151 173 164 138 124 102 104 99 94 75 65 67 64 40 39 29 25 20 8 355 352 335 314 293 303 359 23 15 357 270 236 209 194 197 201 201
306 269 304 317 281 294 284 284 166 166 100 126 169 161 153 112 109 120 91 74 79 90 82 65 48 40 53 42 27 29 17 14 5 349 343 344 336 336 7 145 146 185 277 242 218 205 203 205 198
256 343 316 289 337 259 254 302 357 1 268 144 144 159 132 129 135 98 99 49 62 47 78 64 36 25 48 27 14 15 4 357 355 351 344 342 339 338 344 325 195 210 234 251 213 213 206 211 198
298 279 325 285 282 294 318 31 356 0 347 6 3 106 89 124 76 114 92 91 48 33 43 54 33 11 45 31 7 355 0 355 358 349 340 336 333 349 340 355 337 233 222 233 229 213 214 207 201
286 283 307 263 264 172 130 291 23 30 2 21 18 343 338 17 55 62 84 68 61 38 33 33 20 1 21 20 1 351 3 347 340 331 338 336 333 335 347 356 340 336 232 214 238 242 216 203 207